Regional Weather Roundup
Issued by NWS

Home | Current Version | Previous Version | Graphics & Text | Print | Product List | Glossary On
Versions: 1 2 3 4 5 6 7 8 9 10 11 12 13 14 15 16 17 18 19 20 21 22 23 24 25 26 27 28 29 30 31 32 33 34 35 36 37 38 39 40 41 42 43 44 45 46 47 48 49 50
000
ASUS43 KDMX 300707
RWRIA

WEATHER ROUNDUP FOR IOWA
NATIONAL WEATHER SERVICE DES MOINES IA
200 AM CDT THU JUL 30 2015

NOTE: "FAIR" INDICATES FEW OR NO CLOUDS BELOW 12,000 FEET WITH NO
SIGNIFICANT WEATHER AND/OR OBSTRUCTIONS TO VISIBILITY.

* - THESE STATIONS ARE NOT NWS STATIONS...THUS NOT UNDER NWS
QUALITY CONTROL.  THEY ALSO DO NOT REPORT WEATHER SUCH
AS PRECIPITATION OR FOG.

IAZ001>003-012>014-020>022-031>034-043>046-300800-
   NORTHWEST IOWA

CITY           SKY/WX    TMP DP  RH WIND       PRES   REMARKS
CARROLL *      CLEAR     63  59  88 W8        30.14F
CHEROKEE *     CLEAR     63  61  94 S5        30.14R
DENISON *      CLEAR     63  59  88 SW3       30.14S
LE MARS *      CLEAR     63  59  88 CALM      30.14S
ORANGE CITY *  CLEAR     61  55  82 CALM      30.14S
SHELDON *      CLEAR     55  55 100 CALM      30.12S
SIOUX CITY     CLEAR     68  58  70 W8        30.13S
SPENCER        CLEAR     59  55  87 CALM      30.13S
STORM LAKE *   CLEAR     63  59  88 SW7       30.15S
$$

IAZ055>058-069>071-079>083-090>094-300800-
   SOUTHWEST IOWA

CITY           SKY/WX    TMP DP  RH WIND       PRES   REMARKS
ATLANTIC *     CLEAR     63  61  94 CALM      30.17S
AUDUBON *      CLEAR     64  59  82 CALM      30.17S
CLARINDA *     CLEAR     63  63 100 CALM      30.19S
COUNCIL BLFS * CLEAR     68  59  73 SW8       30.17S
CRESTON *      CLEAR     64  59  82 W6        30.17F
HARLAN  *      CLEAR     59  59 100 CALM      30.20S
LAMONI         CLEAR     68  59  73 SW5       30.17S
RED OAK *      CLEAR     63  63 100 CALM      30.17S
SHENANDOAH *   CLEAR     63  63 100 CALM      30.17F
$$

IAZ047>049-059>061-072>074-084-300800-
   CENTRAL IOWA

CITY           SKY/WX    TMP DP  RH WIND       PRES   REMARKS
AMES           CLEAR     64  60  87 W9        30.12S
ANKENY *       CLEAR     68  61  77 W8        30.13S
CHARITON *     CLEAR     64  59  82 W7        30.15S
DES MOINES     CLEAR     68  60  75 W5        30.13S
GRINNELL*      CLEAR     63  59  88 W5        30.13F
KNOXVILLE *    CLEAR     64  59  82 SW7       30.12F
MARSHALLTOWN     N/A     63  59  87 W5        30.11S
PELLA *        CLEAR     66  64  94 W3        30.14S
PERRY *          N/A     63  61  94 W5        30.14S
$$

IAZ004>006-015-016-023>025-035-036-300800-
   NORTH CENTRAL IOWA

CITY           SKY/WX    TMP DP  RH WIND       PRES   REMARKS
ALGONA *       CLEAR     63  59  88 SW9       30.12S
CLARION *      CLEAR     59  57  94 SW3       30.12S
ESTHERVILLE    CLEAR     59  56  89 SW6       30.11S
FORT DODGE *   CLEAR     63  57  82 CALM      30.14R
MASON CITY     CLEAR     66  59  78 W9        30.12R
FOREST CITY *  CLEAR     61  57  88 SW3       30.11S
IOWA FALLS *     N/A     63  59  88 W6        30.13S
$$

IAZ007>011-017>019-026>030-037>042-050>054-066-300800-
   NORTHEAST IOWA

CITY           SKY/WX    TMP DP  RH WIND       PRES   REMARKS
CEDAR RAPIDS   CLEAR     64  61  90 W7        30.09F
CHARLES CITY * CLEAR     64  61  88 W8        30.10S
CLINTON *      CLEAR     61  57  88 W8        30.09F
DECORAH *      CLEAR     64  59  82 VRB5      30.07R
DUBUQUE        CLEAR     65  58  78 W12       30.08S
MONTICELLO *   CLEAR     63  59  88 CALM      30.08F
OELWEIN *        N/A     63  59  88 W6        30.10S
WATERLOO       CLEAR     66  60  81 W8        30.08F
$$

IAZ064-065-067-068-078-300800-
   EAST CENTRAL IOWA

CITY           SKY/WX    TMP DP  RH WIND       PRES   REMARKS
DAVENPORT      CLEAR     64  60  87 W7        30.08F
IOWA CITY      CLEAR     64  59  83 W7        30.11S
MT. PLEASANT * CLEAR     66  61  82 W6        30.12F
MUSCATINE *    CLEAR     66  59  77 CALM      30.10S
QUAD CITIES    CLEAR     64  59  83 SW5       30.08F
$$

IAZ062-063-075>077-085>089-095>099-300800-
   SOUTHEAST IOWA

CITY           SKY/WX    TMP DP  RH WIND       PRES   REMARKS
BURLINGTON     CLEAR     67  61  81 W5        30.11F
FAIRFIELD *    CLEAR     64  59  82 W7        30.13S
KEOKUK *       CLEAR     66  63  88 W5        30.12S
OSKALOOSA *      N/A     61  59  94 W5        30.13S
CENTERVILLE *  CLEAR     64  61  88 SW6       30.16F
OTTUMWA        CLEAR     64  60  87 W6        30.12S
WASHINGTON *   CLEAR     64  61  88 W8        30.13S
$$

ABBREVIATIONS USED IN REMARKS
   TC - TEMPERATURES IN CELSIUS
  WCI - WIND CHILL INDEX
   HX - HEAT INDEX
  VSB - VISIBILITY
$$




USA.gov is the U.S. government's official web portal to all federal, state and local government web resources and services.